VIR12E KBOS-EGLL

Flight info

Callsign VIR12E
Flight time N/A
Altitude 37000
Route LBSTA8 LBSTA DCT ALLEX DCT TUDEP/M085F390 NATT NETKI/N0491F390 DCT BOFUM Q37 MALUD Q38 NUGRA NUGR2H
Aircraft B789/H-SDE1E2E3FGHIJ2J3J4J5M1RWXY/LB1D1

Departure

Time 2026-05-06 00:26
Airport Boston Logan International Airport (KBOS)

Arrival

Time N/A
Airport London Heathrow Airport (EGLL)
Time Latitude Longitude Altitude Speed Heading
2026-05-05 23:54 42.37141 -71.02496 31 ft 0 kts 225°
2026-05-06 00:13 42.37153 -71.02480 31 ft 4 kts 220°
2026-05-06 00:14 42.37174 -71.02459 30 ft 4 kts 207°
2026-05-06 00:14 42.37198 -71.02447 29 ft 4 kts 186°
2026-05-06 00:14 42.37221 -71.02449 29 ft 4 kts 155°
2026-05-06 00:14 42.37240 -71.02467 28 ft 4 kts 135°
2026-05-06 00:15 42.37258 -71.02494 29 ft 4 kts 130°
2026-05-06 00:15 42.37276 -71.02522 28 ft 4 kts 129°
2026-05-06 00:15 42.37285 -71.02536 28 ft 0 kts 130°
2026-05-06 00:18 42.37284 -71.02536 31 ft 0 kts 130°
2026-05-06 00:18 42.37281 -71.02531 31 ft 2 kts 130°
2026-05-06 00:18 42.37252 -71.02484 31 ft 11 kts 131°
2026-05-06 00:18 42.37178 -71.02385 31 ft 17 kts 136°
2026-05-06 00:19 42.37146 -71.02254 31 ft 14 kts 64°
2026-05-06 00:19 42.37216 -71.02163 31 ft 14 kts 42°
2026-05-06 00:19 42.37237 -71.02049 31 ft 13 kts 99°
2026-05-06 00:19 42.37247 -71.01935 30 ft 12 kts 53°
2026-05-06 00:20 42.37277 -71.01897 31 ft 4 kts 42°
2026-05-06 00:20 42.37292 -71.01832 31 ft 10 kts 106°
2026-05-06 00:20 42.37227 -71.01732 31 ft 19 kts 135°
2026-05-06 00:20 42.37114 -71.01582 31 ft 22 kts 135°
2026-05-06 00:21 42.37005 -71.01435 31 ft 22 kts 135°
2026-05-06 00:21 42.36919 -71.01315 31 ft 13 kts 123°
2026-05-06 00:21 42.36919 -71.01242 31 ft 12 kts 69°
2026-05-06 00:21 42.37004 -71.01100 31 ft 16 kts 27°
2026-05-06 00:22 42.37105 -71.01034 31 ft 16 kts 26°
2026-05-06 00:22 42.37207 -71.00966 31 ft 15 kts 26°
2026-05-06 00:22 42.37293 -71.00912 31 ft 14 kts 22°
2026-05-06 00:22 42.37399 -71.00860 31 ft 20 kts 19°
2026-05-06 00:23 42.37555 -71.00786 31 ft 27 kts 20°
2026-05-06 00:23 42.37676 -71.00726 31 ft 28 kts 20°
2026-05-06 00:23 42.37803 -71.00664 31 ft 14 kts 24°
2026-05-06 00:23 42.37833 -71.00596 31 ft 0 kts 89°
2026-05-06 00:24 42.37833 -71.00573 31 ft 6 kts 94°
2026-05-06 00:24 42.37815 -71.00496 30 ft 8 kts 129°
2026-05-06 00:24 42.37775 -71.00482 31 ft 5 kts 186°
2026-05-06 00:25 42.37757 -71.00488 31 ft 0 kts 200°
2026-05-06 00:25 42.37728 -71.00503 31 ft 17 kts 200°
2026-05-06 00:25 42.37463 -71.00632 33 ft 69 kts 200°
2026-05-06 00:26 42.36542 -71.01077 31 ft 141 kts 200°
2026-05-06 00:26 42.35884 -71.01403 206 ft 155 kts 206°
2026-05-06 00:26 42.34850 -71.01855 693 ft 162 kts 188°
2026-05-06 00:26 42.33789 -71.01291 1176 ft 181 kts 148°
2026-05-06 00:27 42.32921 -71.00012 1753 ft 191 kts 143°
2026-05-06 00:27 42.32048 -70.98497 1808 ft 217 kts 140°
2026-05-06 00:27 42.31325 -70.96561 2006 ft 256 kts 110°
2026-05-06 00:27 42.31340 -70.94001 2229 ft 290 kts 86°
2026-05-06 00:28 42.31775 -70.91220 2566 ft 309 kts 80°
2026-05-06 00:28 42.32282 -70.88420 3386 ft 305 kts 80°
2026-05-06 00:28 42.32714 -70.85597 4035 ft 308 kts 82°
2026-05-06 00:28 42.33107 -70.82770 4755 ft 309 kts 82°
2026-05-06 00:29 42.33529 -70.79893 5451 ft 311 kts 81°
2026-05-06 00:29 42.34250 -70.77177 6048 ft 314 kts 53°
2026-05-06 00:29 42.35730 -70.75057 6686 ft 310 kts 27°
2026-05-06 00:29 42.37664 -70.73896 7331 ft 303 kts 14°
2026-05-06 00:30 42.39678 -70.73025 7980 ft 303 kts 10°
2026-05-06 00:30 42.41715 -70.72236 8601 ft 306 kts 11°
2026-05-06 00:30 42.43756 -70.71398 9230 ft 309 kts 12°
2026-05-06 00:30 42.45833 -70.70681 9801 ft 307 kts
2026-05-06 00:31 42.47954 -70.70073 10176 ft 320 kts
2026-05-06 00:31 42.50200 -70.69330 10208 ft 344 kts
2026-05-06 00:31 42.52607 -70.68587 10261 ft 367 kts
2026-05-06 00:31 42.55174 -70.67841 10353 ft 387 kts
2026-05-06 00:32 42.57808 -70.67053 11042 ft 387 kts
2026-05-06 00:32 42.60451 -70.66246 11613 ft 392 kts
2026-05-06 00:32 42.63123 -70.65439 12228 ft 395 kts
2026-05-06 00:32 42.65819 -70.64630 12814 ft 398 kts
2026-05-06 00:33 42.68542 -70.63884 13370 ft 400 kts
2026-05-06 00:33 42.71309 -70.63326 13867 ft 404 kts
2026-05-06 00:33 42.74085 -70.62663 14372 ft 407 kts
2026-05-06 00:33 42.76870 -70.61862 14832 ft 415 kts 16°
2026-05-06 00:34 42.79482 -70.60120 15318 ft 422 kts 32°
2026-05-06 00:34 42.81703 -70.57473 15804 ft 428 kts 49°
2026-05-06 00:34 42.83402 -70.54193 16246 ft 432 kts 57°
2026-05-06 00:34 42.85049 -70.50751 16699 ft 435 kts 57°
2026-05-06 00:35 42.86683 -70.47275 17177 ft 438 kts 57°
2026-05-06 00:35 42.88332 -70.43769 17677 ft 440 kts 57°
2026-05-06 00:35 42.90000 -70.40249 18138 ft 443 kts 57°
2026-05-06 00:35 42.91681 -70.36699 18550 ft 446 kts 57°
2026-05-06 00:36 42.93360 -70.33132 18988 ft 448 kts 57°
2026-05-06 00:36 42.95014 -70.29613 19399 ft 451 kts 57°
2026-05-06 00:36 42.96712 -70.26002 19778 ft 453 kts 57°
2026-05-06 00:36 42.98419 -70.22371 20180 ft 455 kts 57°
2026-05-06 00:37 43.00133 -70.18717 20561 ft 458 kts 56°
2026-05-06 00:37 43.01851 -70.15047 20948 ft 460 kts 56°
2026-05-06 00:37 43.03583 -70.11347 21336 ft 462 kts 56°
2026-05-06 00:37 43.05292 -70.07691 21715 ft 464 kts 56°
2026-05-06 00:38 43.07034 -70.03957 22079 ft 467 kts 56°
2026-05-06 00:38 43.08783 -70.00205 22454 ft 469 kts 56°
2026-05-06 00:38 43.10539 -69.96432 22803 ft 471 kts 56°
2026-05-06 00:38 43.12301 -69.92642 23172 ft 473 kts 56°
2026-05-06 00:39 43.14071 -69.88832 23515 ft 475 kts 56°
2026-05-06 00:39 43.15847 -69.85001 23802 ft 477 kts 56°
2026-05-06 00:39 43.17629 -69.81154 24099 ft 479 kts 56°
2026-05-06 00:39 43.19416 -69.77291 24348 ft 482 kts 56°
2026-05-06 00:40 43.21212 -69.73404 24659 ft 483 kts 56°
2026-05-06 00:40 43.22988 -69.69552 24918 ft 485 kts 56°
2026-05-06 00:40 43.24793 -69.65633 25171 ft 487 kts 56°
2026-05-06 00:40 43.26604 -69.61699 25451 ft 489 kts 56°
2026-05-06 00:41 43.28419 -69.57748 25741 ft 490 kts 56°
2026-05-06 00:41 43.30240 -69.53780 26009 ft 492 kts 56°
2026-05-06 00:41 43.32061 -69.49805 26274 ft 494 kts 56°
2026-05-06 00:41 43.33892 -69.45804 26542 ft 496 kts 56°
2026-05-06 00:42 43.35732 -69.41777 26809 ft 498 kts 56°
2026-05-06 00:42 43.37569 -69.37752 27092 ft 499 kts 56°
2026-05-06 00:42 43.39416 -69.33699 27359 ft 501 kts 56°
2026-05-06 00:42 43.41242 -69.29686 27666 ft 502 kts 56°
2026-05-06 00:43 43.43097 -69.25605 27934 ft 504 kts 56°
2026-05-06 00:43 43.44958 -69.21505 28218 ft 506 kts 56°
2026-05-06 00:43 43.46825 -69.17385 28478 ft 509 kts 56°
2026-05-06 00:43 43.48701 -69.13240 28757 ft 511 kts 56°
2026-05-06 00:44 43.50582 -69.09077 29066 ft 513 kts 56°
2026-05-06 00:44 43.52470 -69.04894 29365 ft 515 kts 56°
2026-05-06 00:44 43.54363 -69.00692 29613 ft 517 kts 56°
2026-05-06 00:44 43.56238 -68.96526 29904 ft 519 kts 56°
2026-05-06 00:45 43.58143 -68.92285 30176 ft 521 kts 56°
2026-05-06 00:45 43.60051 -68.88034 30467 ft 523 kts 56°
2026-05-06 00:45 43.61938 -68.83821 30666 ft 525 kts 56°
2026-05-06 00:45 43.63860 -68.79526 30953 ft 526 kts 56°
2026-05-06 00:46 43.65785 -68.75217 31243 ft 528 kts 56°
2026-05-06 00:46 43.67713 -68.70893 31520 ft 529 kts 57°
2026-05-06 00:46 43.69638 -68.66570 31947 ft 527 kts 57°
2026-05-06 00:46 43.71557 -68.62254 32371 ft 526 kts 57°
2026-05-06 00:47 43.73469 -68.57949 32787 ft 525 kts 57°
2026-05-06 00:47 43.75353 -68.53702 33156 ft 525 kts 57°
2026-05-06 00:47 43.77277 -68.49353 33613 ft 523 kts 57°
2026-05-06 00:47 43.79149 -68.45120 34013 ft 522 kts 57°
2026-05-06 00:48 43.81039 -68.40838 34331 ft 521 kts 57°
2026-05-06 00:48 43.82928 -68.36553 34643 ft 521 kts 57°
2026-05-06 00:48 43.84815 -68.32267 34966 ft 521 kts 57°
2026-05-06 00:48 43.86699 -68.27978 35270 ft 521 kts 57°
2026-05-06 00:49 43.88585 -68.23682 35496 ft 523 kts 57°
2026-05-06 00:49 43.90473 -68.19373 35775 ft 523 kts 57°
2026-05-06 00:49 43.92306 -68.15182 36051 ft 523 kts 57°
2026-05-06 00:49 43.94192 -68.10867 36322 ft 523 kts 58°
2026-05-06 00:50 43.96074 -68.06552 36610 ft 523 kts 58°
2026-05-06 00:50 43.97936 -68.02283 36791 ft 524 kts 58°
2026-05-06 00:50 43.99824 -67.97941 36911 ft 527 kts 58°
2026-05-06 00:51 44.03589 -67.89256 36897 ft 521 kts 58°
2026-05-06 00:51 44.07315 -67.80650 36910 ft 518 kts 58°
2026-05-06 00:52 44.11021 -67.72054 36908 ft 519 kts 58°
2026-05-06 00:52 44.14731 -67.63431 36925 ft 520 kts 58°
2026-05-06 00:53 44.18451 -67.54752 36924 ft 522 kts 58°
2026-05-06 00:53 44.22136 -67.46134 36916 ft 519 kts 58°
2026-05-06 00:54 44.25819 -67.37492 36922 ft 518 kts 58°
2026-05-06 00:54 44.29492 -67.28847 36931 ft 519 kts 58°
2026-05-06 00:55 44.33182 -67.20136 36927 ft 522 kts 58°
2026-05-06 00:55 44.36866 -67.11413 36932 ft 520 kts 58°
2026-05-06 00:56 44.40504 -67.02773 36917 ft 518 kts 58°
2026-05-06 00:56 44.42522 -66.98622 36944 ft 515 kts 47°
2026-05-06 00:56 44.44868 -66.94835 36914 ft 518 kts 47°
2026-05-06 00:57 44.49613 -66.87236 36920 ft 518 kts 47°
2026-05-06 00:57 44.54329 -66.79596 36900 ft 516 kts 47°
2026-05-06 00:58 44.59023 -66.72011 36908 ft 515 kts 47°
2026-05-06 00:58 44.63709 -66.64395 36907 ft 516 kts 47°
2026-05-06 00:59 44.68393 -66.56775 36907 ft 516 kts 47°
2026-05-06 00:59 44.72999 -66.49256 36910 ft 516 kts 47°
2026-05-06 01:00 44.77678 -66.41599 36908 ft 516 kts 47°
2026-05-06 01:00 44.82354 -66.33926 36915 ft 516 kts 47°
2026-05-06 01:01 44.87025 -66.26239 36923 ft 516 kts 47°
2026-05-06 01:01 44.91696 -66.18534 36921 ft 517 kts 48°
2026-05-06 01:02 44.96341 -66.10849 36944 ft 518 kts 48°
2026-05-06 01:02 45.01015 -66.03094 36941 ft 518 kts 48°
2026-05-06 01:03 45.05648 -65.95387 36920 ft 518 kts 48°
2026-05-06 01:03 45.10306 -65.87616 36913 ft 518 kts 48°
2026-05-06 01:04 45.14965 -65.79823 36908 ft 518 kts 48°
2026-05-06 01:04 45.19591 -65.72064 36908 ft 520 kts 48°
2026-05-06 01:05 45.24259 -65.64212 36909 ft 521 kts 48°
2026-05-06 01:05 45.28925 -65.56341 36907 ft 521 kts 48°
2026-05-06 01:06 45.33587 -65.48455 36906 ft 521 kts 49°
2026-05-06 01:06 45.38253 -65.40541 36910 ft 523 kts 49°
2026-05-06 01:07 45.42885 -65.32662 36906 ft 523 kts 49°
2026-05-06 01:07 45.47536 -65.24727 36907 ft 521 kts 49°
2026-05-06 01:08 45.52114 -65.16896 36904 ft 521 kts 49°
2026-05-06 01:08 45.56713 -65.09007 36893 ft 521 kts 49°
2026-05-06 01:09 45.61336 -65.01054 36879 ft 519 kts 49°
2026-05-06 01:09 45.65940 -64.93111 36880 ft 521 kts 49°
2026-05-06 01:10 45.70566 -64.85107 36879 ft 522 kts 49°
2026-05-06 01:10 45.75187 -64.77089 36868 ft 521 kts 49°
2026-05-06 01:11 45.79800 -64.69062 36853 ft 523 kts 49°
2026-05-06 01:11 45.84389 -64.61053 36854 ft 523 kts 49°
2026-05-06 01:12 45.89006 -64.52972 36857 ft 524 kts 49°
2026-05-06 01:12 45.93617 -64.44879 36855 ft 524 kts 49°
2026-05-06 01:13 45.98232 -64.36755 36851 ft 524 kts 49°
2026-05-06 01:13 46.02833 -64.28633 36844 ft 523 kts 49°
2026-05-06 01:14 46.09674 -64.16511 36829 ft 522 kts 49°
2026-05-06 01:14 46.14259 -64.08359 36836 ft 525 kts 49°
2026-05-06 01:15 46.18840 -64.00187 36840 ft 523 kts 49°
2026-05-06 01:15 46.23403 -63.92026 36836 ft 522 kts 49°
2026-05-06 01:16 46.27938 -63.83889 36838 ft 525 kts 49°
2026-05-06 01:16 46.32517 -63.75649 36841 ft 526 kts 49°
2026-05-06 01:17 46.37097 -63.67384 36838 ft 526 kts 49°